Location: Zagreb
(45.8000°N, 16.0000°E)
Time: 19:40:22
(UTC+01:00)

Oscar 11 - Pass Details

Date: 03 November 2020
Orbit: 613 x 625 km, 97.6° (Epoch: 01 December)

Event Time Altitude Azimuth Distance (km) Brightness Sun altitude
Rises 17:10:28 0° 160° (SSE) 2,881 10.5 -6.0°
Reaches altitude 10° 17:12:39 10° 159° (SSE) 1,978 9.6 -6.4°
Maximum altitude 17:16:57 73° 75° (ENE) 650 7.0 -7.1°
Drops below altitude 10° 17:21:15 10° 351° (N) 1,987 9.6 -7.8°
Sets 17:23:26 0° 350° (N) 2,895 10.5 -8.2°
